• In Germany
  • List of Countries
  • For 7 days
  • Water Temperature
  • Satellite Maps
  • Weather Map
  • Weather Widgets
  • user-avatar
    Login

    Hourly Weather Yulara

    Today, 23 September, Saturday

    Time Temperature Precipitation Wind Pressure Humidity
    00:00 +27°C° 0 mm 6 mps 714 mmHg 12%
    01:00 +26°C° 0 mm 6 mps 714 mmHg 13%
    02:00 +26°C° 0 mm 6 mps 714 mmHg 14%
    03:00 +25°C° 0 mm 5 mps 713 mmHg 14%
    04:00 +25°C° 0 mm 5 mps 713 mmHg 15%
    05:00 +23°C° 0 mm 5 mps 713 mmHg 17%
    06:00 +22°C° 0 mm 5 mps 714 mmHg 18%
    07:00 +25°C° 0 mm 5 mps 714 mmHg 17%
    08:00 +28°C° 0 mm 6 mps 715 mmHg 17%
    09:00 +32°C° 0 mm 7 mps 715 mmHg 14%
    10:00 +33°C° 0 mm 7 mps 715 mmHg 12%
    11:00 +35°C° 0 mm 8 mps 715 mmHg 11%
    12:00 +38°C° 0 mm 8 mps 715 mmHg 10%
    13:00 +38°C° 0 mm 9 mps 714 mmHg 10%
    14:00 +38°C° 0 mm 10 mps 714 mmHg 9%
    15:00 +38°C° 0 mm 10 mps 713 mmHg 10%
    16:00 +37°C° 0 mm 9 mps 713 mmHg 11%
    17:00 +35°C° 0 mm 9 mps 713 mmHg 12%
    18:00 +34°C° 0 mm 8 mps 713 mmHg 13%
    19:00 +32°C° 0 mm 7 mps 714 mmHg 15%
    20:00 +29°C° 0 mm 6 mps 714 mmHg 17%
    21:00 +27°C° 0 mm 5 mps 714 mmHg 19%
    22:00 +26°C° 0 mm 5 mps 714 mmHg 21%
    23:00 +25°C° 0 mm 5 mps 714 mmHg 23%

    Tomorrow, 24 September, Sunday

    Time Temperature Precipitation Wind Pressure Humidity
    00:00 +25°C° 0 mm 4 mps 714 mmHg 24%
    01:00 +23°C° 0 mm 4 mps 714 mmHg 25%
    02:00 +22°C° 0 mm 4 mps 714 mmHg 26%
    03:00 +21°C° 0 mm 3 mps 714 mmHg 28%
    04:00 +20°C° 0 mm 3 mps 714 mmHg 28%
    05:00 +19°C° 0 mm 2 mps 714 mmHg 29%
    06:00 +18°C° 0 mm 2 mps 714 mmHg 30%
    07:00 +20°C° 0 mm 2 mps 714 mmHg 26%
    08:00 +24°C° 0 mm 2 mps 715 mmHg 22%
    09:00 +27°C° 0 mm 3 mps 715 mmHg 18%
    10:00 +29°C° 0 mm 4 mps 715 mmHg 16%
    11:00 +32°C° 0 mm 6 mps 715 mmHg 14%
    12:00 +35°C° 0 mm 8 mps 714 mmHg 12%
    13:00 +37°C° 0 mm 9 mps 713 mmHg 12%
    14:00 +37°C° 0 mm 9 mps 713 mmHg 11%
    15:00 +38°C° 0 mm 10 mps 712 mmHg 11%
    16:00 +37°C° 0 mm 9 mps 712 mmHg 11%
    17:00 +35°C° 0 mm 8 mps 712 mmHg 12%
    18:00 +34°C° 0 mm 7 mps 712 mmHg 13%
    19:00 +32°C° 0 mm 6 mps 712 mmHg 14%
    20:00 +30°C° 0 mm 6 mps 713 mmHg 15%
    21:00 +28°C° 0 mm 5 mps 713 mmHg 16%
    22:00 +27°C° 0 mm 5 mps 713 mmHg 16%
    23:00 +26°C° 0 mm 5 mps 713 mmHg 16%

    Day after tomorrow, 25 September, Monday

    Time Temperature Precipitation Wind Pressure Humidity
    00:00 +25°C° 0 mm 5 mps 713 mmHg 17%
    01:00 +23°C° 0 mm 5 mps 713 mmHg 16%
    02:00 +23°C° 0 mm 4 mps 712 mmHg 16%
    03:00 +22°C° 0 mm 4 mps 712 mmHg 16%
    04:00 +21°C° 0 mm 3 mps 712 mmHg 17%
    05:00 +19°C° 0 mm 3 mps 712 mmHg 19%
    06:00 +18°C° 0 mm 2 mps 712 mmHg 21%
    07:00 +21°C° 0 mm 2 mps 713 mmHg 18%
    08:00 +26°C° 0 mm 3 mps 714 mmHg 15%
    09:00 +29°C° 0 mm 3 mps 714 mmHg 12%
    10:00 +32°C° 0 mm 6 mps 714 mmHg 10%
    11:00 +34°C° 0 mm 8 mps 714 mmHg 9%
    12:00 +37°C° 0 mm 10 mps 714 mmHg 7%
    13:00 +38°C° 0 mm 11 mps 713 mmHg 7%
    14:00 +38°C° 0 mm 11 mps 712 mmHg 6%
    15:00 +39°C° 0 mm 12 mps 712 mmHg 6%
    16:00 +37°C° 0 mm 10 mps 712 mmHg 7%
    17:00 +35°C° 0 mm 9 mps 712 mmHg 8%
    18:00 +34°C° 0 mm 7 mps 712 mmHg 9%
    19:00 +32°C° 0 mm 7 mps 713 mmHg 11%
    20:00 +30°C° 0 mm 6 mps 713 mmHg 12%
    21:00 +28°C° 0 mm 5 mps 714 mmHg 14%
    22:00 +27°C° 0 mm 5 mps 714 mmHg 15%
    23:00 +26°C° 0 mm 5 mps 714 mmHg 17%

    26 September, Tuesday

    Time Temperature Precipitation Wind Pressure Humidity
    00:00 +26°C° 0 mm 5 mps 714 mmHg 18%
    01:00 +25°C° 0 mm 4 mps 713 mmHg 20%
    02:00 +23°C° 0 mm 4 mps 713 mmHg 22%
    03:00 +22°C° 0 mm 4 mps 713 mmHg 23%
    04:00 +22°C° 0 mm 4 mps 713 mmHg 24%
    05:00 +21°C° 0 mm 4 mps 713 mmHg 26%
    06:00 +21°C° 0 mm 3 mps 713 mmHg 27%
    07:00 +23°C° 0 mm 5 mps 714 mmHg 25%
    08:00 +27°C° 0 mm 7 mps 715 mmHg 22%
    09:00 +31°C° 0 mm 9 mps 715 mmHg 20%
    10:00 +33°C° 0 mm 10 mps 715 mmHg 18%
    11:00 +36°C° 0 mm 11 mps 715 mmHg 16%
    12:00 +37°C° 0 mm 13 mps 715 mmHg 14%
    13:00 +38°C° 0 mm 13 mps 714 mmHg 13%
    14:00 +38°C° 0 mm 13 mps 713 mmHg 13%
    15:00 +40°C° 0 mm 14 mps 713 mmHg 13%
    16:00 +37°C° 0 mm 12 mps 713 mmHg 15%
    17:00 +36°C° 0 mm 10 mps 713 mmHg 16%
    18:00 +34°C° 0 mm 9 mps 714 mmHg 18%
    19:00 +32°C° 0 mm 8 mps 714 mmHg 21%
    20:00 +29°C° 0 mm 6 mps 715 mmHg 24%
    21:00 +28°C° 0 mm 5 mps 716 mmHg 26%
    22:00 +27°C° 0 mm 5 mps 715 mmHg 27%
    23:00 +26°C° 0 mm 4 mps 715 mmHg 28%

    27 September, Wednesday

    Time Temperature Precipitation Wind Pressure Humidity
    00:00 +25°C° 0 mm 4 mps 715 mmHg 28%
    01:00 +23°C° 0 mm 4 mps 715 mmHg 28%
    02:00 +22°C° 0 mm 4 mps 715 mmHg 29%
    03:00 +22°C° 0 mm 4 mps 715 mmHg 29%
    04:00 +22°C° 0 mm 4 mps 715 mmHg 28%
    05:00 +22°C° 0 mm 4 mps 716 mmHg 28%
    06:00 +22°C° 0 mm 3 mps 716 mmHg 27%
    07:00 +22°C° 0 mm 4 mps 717 mmHg 27%
    08:00 +22°C° 0 mm 5 mps 718 mmHg 26%
    09:00 +23°C° 0 mm 6 mps 718 mmHg 26%
    10:00 +24°C° 0 mm 6 mps 718 mmHg 25%
    11:00 +26°C° 0 mm 5 mps 718 mmHg 24%
    12:00 +27°C° 0 mm 5 mps 718 mmHg 23%
    13:00 +26°C° 0.1 mm 6 mps 718 mmHg 29%
    14:00 +24°C° 0.1 mm 6 mps 717 mmHg 34%
    15:00 +22°C° 0.1 mm 7 mps 717 mmHg 40%
    16:00 +21°C° 0.4 mm 7 mps 717 mmHg 49%
    17:00 +18°C° 0.4 mm 8 mps 717 mmHg 58%
    18:00 +16°C° 0.4 mm 8 mps 717 mmHg 67%
    19:00 +16°C° 0.8 mm 7 mps 718 mmHg 69%
    20:00 +16°C° 0.8 mm 5 mps 718 mmHg 72%
    21:00 +17°C° 0.8 mm 4 mps 719 mmHg 74%
    22:00 +17°C° 1.4 mm 3 mps 719 mmHg 76%
    23:00 +17°C° 1.4 mm 3 mps 718 mmHg 78%

    28 September, Thursday

    Time Temperature Precipitation Wind Pressure Humidity
    00:00 +17°C° 1.4 mm 2 mps 718 mmHg 80%
    01:00 +17°C° 1.6 mm 2 mps 718 mmHg 81%
    02:00 +17°C° 1.6 mm 2 mps 718 mmHg 82%
    03:00 +17°C° 1.6 mm 2 mps 717 mmHg 83%
    04:00 +17°C° 2 mm 3 mps 718 mmHg 83%
    05:00 +16°C° 2 mm 3 mps 718 mmHg 84%
    06:00 +15°C° 2 mm 4 mps 718 mmHg 84%
    07:00 +15°C° 1.9 mm 4 mps 719 mmHg 84%
    08:00 +15°C° 1.9 mm 5 mps 719 mmHg 83%
    09:00 +15°C° 1.9 mm 6 mps 719 mmHg 83%
    10:00 +15°C° 1.5 mm 5 mps 719 mmHg 83%
    11:00 +15°C° 1.5 mm 5 mps 718 mmHg 82%
    12:00 +17°C° 1.5 mm 4 mps 718 mmHg 82%
    13:00 +17°C° 1.1 mm 4 mps 718 mmHg 82%
    14:00 +17°C° 1.1 mm 4 mps 717 mmHg 81%
    15:00 +17°C° 1.1 mm 4 mps 717 mmHg 81%
    16:00 +17°C° 0 mm 4 mps 717 mmHg 80%
    17:00 +17°C° 0 mm 4 mps 717 mmHg 80%
    18:00 +17°C° 0 mm 4 mps 717 mmHg 79%
    19:00 +17°C° 0 mm 4 mps 717 mmHg 81%
    20:00 +15°C° 0 mm 4 mps 718 mmHg 83%
    21:00 +15°C° 0 mm 4 mps 718 mmHg 86%
    22:00 +15°C° 0.1 mm 4 mps 718 mmHg 85%
    23:00 +14°C° 0.1 mm 4 mps 717 mmHg 85%
    Show more